Hourly Data Report for January 08, 2022

ST. JOHN'S INTL A
NEWFOUNDLAND
Current Station Operator: NAVCAN

47°37'07.000" N
52°45'09.000" W
140.50 m
8403505
71801
YYT

Download Data

Hourly Data (January 2022)
Hourly Data Report for January 8, 2022
TIME
LST
Temp Definition
°C
Dew Point Definition
°C
Rel Hum Definition
%
Precip. Amount Definition
mm

Wind Dir Definition
10's deg

Wind Spd Definition
km/h
Visibility Definition
km
Stn Press Definition
kPa
Hmdx Definition


Wind Chill Definition


Weather Definition


00:30 -0.6 -0.9 98   13 43 19.3 97.91   -8 LegendNANA
01:30 -0.2 -0.4 98   14 33 16.1 97.64   -7 Freezing Rain
02:30 0.2 0.0 99   14 37 0.4 97.19     Rain, Fog
03:30 0.8 0.7 99   17 25 0.8 97.01     Rain, Fog
04:30 3.6 3.5 99   23 40 24.1 96.89     LegendNANA
05:30 3.5 1.3 85   24 35 24.1 96.84     Cloudy
06:30 3.5 1.2 85   23 36 24.1 96.83     LegendNANA
07:30 2.7 0.9 88   22 35 24.1 96.66     Drizzle
08:30 1.8 -2.0 76   23 57 24.1 96.61     Mostly Cloudy
09:30 0.6 -1.5 85   23 49 19.3 96.48     Drizzle
10:30 1.1 -2.3 78   24 51 12.9 96.37     Drizzle
11:30 0.3 -1.9 85   23 41 24.1 96.19     Mostly Cloudy
12:30 0.7 -1.3 87   23 46 6.4 95.95     Snow Showers
13:30 1.0 -0.1 92   25 46 4.0 95.84     Snow Showers
14:30 0.9 0.1 94   29 45 24.1 96.10     Cloudy
15:30 -0.3 -1.8 90   34 59 12.9 96.56   -9 Snow Showers
16:30 -0.9 -3.7 82   33 64 24.1 97.08   -10 Snow Showers,Blowing Snow
17:30 -1.5 -4.1 83   33 67 16.1 97.54   -11 Snow Showers,Blowing Snow
18:30 -2.5 -4.1 89   33 52 4.8 97.97   -12 Snow Showers,Blowing Snow
19:30 -3.3 -5.9 83   32 65 19.3 98.34   -14 Snow Showers,Blowing Snow
20:30 -3.8 -6.8 80   33 65 19.3 98.73   -14 Snow Showers,Blowing Snow
21:30 -4.1 -7.6 77   33 53 24.1 98.96   -14 Snow Showers,Blowing Snow
22:30 -4.8 -8.1 78   33 54 24.1 99.24   -15 LegendNANA
23:30 -5.9 -9.4 77   31 47 24.1 99.49   -16 Mostly Cloudy

Notes on Data Quality.

Legend

  • E = Estimated
  • M = Missing
  • NA = Not Available*
  • [empty] = Indicates an unobserved value
Date modified: